User: anonymous   Login
Location: NJAA Observatory
(40.6819°N, 74.8979°W)
Time: 12:30:43
(UTC-04:00)
Language:

Meteor 2-9 Rocket - Orbit

View from above orbital plane
View from above orbital plane
View from above satellite
View from above satellite

Ground track
Ground track

The orbit data is extracted from the following two-line orbital elements,

1 13719U 82116B   16147.20089814  .00000171  00000-0  80630-4 0  9990
2 13719  81.2556  19.4658 0072188  17.5204 126.5575 14.14582674725656
Epoch (UTC): 26 May 2016 04:49:17
Eccentricity: 0.0072188
inclination: 81.2556°
perigee height: 791 km
apogee height: 896 km
right ascension of ascending node: 19.4658°
argument of perigee: 17.5204°
revolutions per day: 14.14582674
mean anomaly at epoch: 126.5575°
orbit number at epoch: 72565

The dashed part of the orbit path shows where the satellite is in the earth's shadow,  

DLR